OBJECT G, 56749

Orbit data source: Space-Track

You're viewing an Uncataloged Satellite

Recently launched and/or uncataloged satellites may have evolving metadata. Metadata may include but not limited to: Owner, Maufacturer, Bus, Motor, and Mission.

OBJECT G, 56749 is a South Korean satellite in SSO that was launched on Thu, 25 May 2023 UTC via an NURI launch vehicle from the Naro Space Center, South Korea (NSC). Unknown objects in Earth's orbit typically refer to objects detected orbiting the Earth but have not yet been identified or cataloged. These objects could be anything from previously untracked satellites, spent rocket stages, debris from satellite collisions, or even natural meteoroids temporarily captured by Earth's gravity.

Loading next visibility...
Identifier
56749, 2023-072G
Orbit
SSO
Country
Flag of UnknownUnknown / SKOR
Related business
None
Manufacturer
Unknown
Mission
Operational Commercial Technology
Bus & Motor
Unknown
Mass
Unknown
Launch date (UTC)
2023-05-25 (2 years ago)
Launch vehicle
NURI
Launch site
Naro Space Center, South Korea (NSC)
Object type
Unknown
Shape & HBR
Box, 0.1 m
Radar Cross Section
0.035 m², Medium (>0.1 m² and < 1m²)

Expand to show TLE details & history
Last TLE update: 10 hours ago

TLE from 10 hours ago
0 OBJECT G
1 56749U 23072G   25286.63129521  .00026831  00000-0  76273-3 0  9995
2 56749  97.5124 121.9957 0005695 141.6955 218.4694 15.36120700132433
Epoch: 2025-10-13T15:09Z
TLE epoch observation values (Epoch: 2025-10-13T15:09:03.906Z)
Latitude
-0°
Longitude
-127.70188°
Altitude
463.752 km
Speed
7.633 km/s
True Right ascension
08h 07m 58s
True Declination
0° 00' 00"
Sunlit
Object was in daylight at epoch
Visualization orbit readout
Latitude
Unknown
Longitude
Unknown
Altitude
Unknown
Speed
Unknown
Apparent Right ascension
Unknown
Apparent Declination
Unknown
Sunlit
N/A
Visualization observer readout
Local Sidereal Time
19:40:43
Azimuth
Unknown
Elevation
Unknown
Doppler factor
Unknown
Orbital elements
Apogee altitude
458.434 km
Perigee altitude
450.652 km
Semi-major axis
6,832.68 km
Eccentricity
0.00057
Inclination
97.5124°
RAAN
121.9957°
Arg. of periapsis
141.6955°
True anomaly
218.42882°
Mean anomaly
218.4694°
Eccentric anomaly
218.44911°
Mean motion
3.84288 °/min
Orbital period
93.68 mins
BSTAR
0.00076273
Loading maneuver chart data...
Computing Atmospheric mass density...
Loading historical data...
Loading historical data...
Loading historical data...
Loading historical data...
Loading historical data...
Loading historical data...
Loading historical data...

Documentation

Showing up to 5 results
|